Home   Weather   Tucson   Past weeks

Flag for USA Past Weather in Tucson, Arizona, USA — Yesterday and Last 2 Weeks

Now
73 °F

Clear.


Feels Like: 74 °F
Forecast: 61 / 97 °F
Wind: 7 mph from Southwest

Location: Davis-Monthan Air Force Base

Current Time: Apr 22, 2017 at 10:52:48 pm

Latest Report: Apr 22, 2017 at 9:58 pm


Visibility: 10 mi

Pressure: 29.79 "Hg (27.29 "Hg at 758m altitude)

Humidity: 13%

Dew Point: 20 °F

Location of TucsonLocation

Past Weather in Tucson — Graph

°F

Tucson Temperature Yesterday

Maximum temperature yesterday: 88 °F (at 3:58 pm)
Minimum temperature yesterday: 53 °F (at 5:58 am)
Average temperature yesterday: 73 °F

High & Low Weather Summary for the Past Weeks

 TemperatureHumidityPressure
High93 °F (Apr 22, 3:58 pm)38% (Apr 9, 1:58 am)30.09 "Hg (Apr 9, 1:58 am)
Low48 °F (Apr 10, 3:58 am)4% (Apr 11, 2:58 pm)29.71 "Hg (Apr 8, 4:58 pm)
Average72 °F15%29.87 "Hg
* Reported Apr 7 8:58 pm — Apr 22 8:58 pm, Tucson, Weather by CustomWeather, © 2017

Note: Actual official high and low records may vary slightly from our data, if they occured in-between our weather recording intervals... More about our weather records

Advertising

Tucson Weather History for the Previous 24 Hours

Scroll right to see more
 ConditionsComfort  
Time TempWeatherWind HumidityBarometerVisibility
8:58 pm
Sat, Apr 22
79 °FClear.7 mph10%29.78 "Hg10 mi
7:58 pm83 °FClear.10 mph8%29.76 "Hg10 mi
6:58 pm86 °FClear.14 mph7%29.75 "Hg10 mi
5:58 pm91 °FSunny.14 mph6%29.75 "Hg10 mi
4:58 pm92 °FSunny.8 mph5%29.75 "Hg10 mi
3:58 pm93 °FSunny.6 mph5%29.75 "Hg10 mi
2:58 pm92 °FSunny.7 mph5%29.76 "Hg10 mi
1:58 pm91 °FSunny.No wind5%29.78 "Hg10 mi
12:58 pm89 °FSunny.3 mph5%29.80 "Hg10 mi
10:58 am84 °FSunny.6 mph6%29.85 "Hg10 mi
9:58 am82 °FSunny.No wind8%29.85 "Hg10 mi
8:58 am76 °FSunny.3 mph10%29.86 "Hg10 mi
7:58 am71 °FSunny.6 mph12%29.86 "Hg10 mi
6:58 am62 °FSunny.7 mph17%29.85 "Hg10 mi
5:58 am56 °FSunny.10 mph19%29.85 "Hg10 mi
4:58 am55 °FClear.7 mph20%29.83 "Hg10 mi
3:58 am57 °FClear.6 mph18%29.83 "Hg10 mi
2:58 am59 °FClear.9 mph16%29.83 "Hg10 mi
1:58 am60 °FClear.6 mph15%29.83 "Hg10 mi
12:58 am62 °FClear.8 mph14%29.83 "Hg10 mi
11:58 pm
Fri, Apr 21
64 °FClear.7 mph13%29.83 "Hg10 mi
10:58 pm66 °FClear.7 mph13%29.81 "Hg10 mi
Weather by CustomWeather, © 2017

See weather overviewHow to use our weather pages